Regional Weather Roundup
Issued by NWS

Home | Current Version | Previous Version | Graphics & Text | Print | Product List | Glossary On
Versions: 1 2 3 4 5 6 7 8 9 10 11 12 13 14 15 16 17 18 19 20 21 22 23 24 25 26 27 28 29 30 31 32 33 34 35 36 37 38 39 40 41 42 43 44 45 46 47 48 49 50
000
ASUS43 KFSD 252102
RWRSD

WEATHER ROUNDUP FOR SOUTH DAKOTA
NATIONAL WEATHER SERVICE SIOUX FALLS SD
400 PM CDT SAT OCT 25 2014

NOTE: "FAIR" INDICATES FEW OR NO CLOUDS BELOW 12,000 FEET WITH NO
SIGNIFICANT WEATHER AND/OR OBSTRUCTIONS TO VISIBILITY.


SDZ001>005-009-010-012>017-252200-
NORTHWEST AND NORTH CENTRAL SOUTH DAKOTA

CITY           SKY/WX    TMP DP  RH WIND       PRES   REMARKS
BUFFALO          N/A     66  32  28 SE21G28   29.92F
FAITH            N/A     65  30  27 SE18      30.03F
MOBRIDGE       SUNNY     66  27  23 S7        30.05F
$$

SDZ012>016-024>037-041>051-057-063-072>074-252200-
SOUTHWEST AND SOUTH CENTRAL SOUTH DAKOTA

CITY           SKY/WX    TMP DP  RH WIND       PRES   REMARKS
RAPID CTY ARPT SUNNY     65  36  34 S15       30.02F
PIERRE         SUNNY     67  28  23 SE8       30.06F
CUSTER         SUNNY     68  33  27 VRB6      30.09F
ELLSWORTH AFB  SUNNY     66  37  34 SE15      30.01F
PHILIP         SUNNY     69  33  26 SE12      30.03F
PINE RIDGE     SUNNY     71  39  31 SE8       30.04F
SPEARFISH      FAIR      68  41  37 E5        30.01F
WINNER         FAIR      71  28  20 SE10      30.07F
$$

SDZ004>011-016>023-039-040-252200-
NORTHEAST SOUTH DAKOTA

CITY           SKY/WX    TMP DP  RH WIND       PRES   REMARKS
ABERDEEN       SUNNY     65  29  25 NE3       30.10F
WATERTOWN      SUNNY     63  29  27 VRB7      30.10F
SISSETON         N/A     63  27  25 N15       30.08F
$$

SDZ017-020-022-023-036>040-048>070-252200-
SOUTHEAST SOUTH DAKOTA

CITY           SKY/WX    TMP DP  RH WIND       PRES   REMARKS
SIOUX FALLS    SUNNY     68  37  32 NE8       30.09F
HURON          SUNNY     67  28  23 VRB5      30.09F
CHAMBERLAIN    SUNNY     68  27  21 SE7       30.07F
MITCHELL       SUNNY     69  33  26 N6        30.09F
YANKTON        SUNNY     70  36  28 NE6       30.09S
$$

ABBREVIATIONS USED IN REMARKS
   TC - TEMPERATURE IN CELSIUS
  WCI - WIND CHILL INDEX
   HX - HEAT INDEX
  VSB - VISIBILITY




USA.gov is the U.S. government's official web portal to all federal, state and local government web resources and services.